Le nostre stazioni meteo in Italia

Pubblicità
Il mio iltempo24.it
Torino/Bric Della Croce, Italia (16061): Temperatura & dewpoint: 15.08.2019 14:00:00 - 21.08.2019 14:00:00 (CEST)Torino/Bric Della Croce, Italia (16061): velocità del vento: 15.08.2019 14:00:00 - 21.08.2019 14:00:00 (CEST)Torino/Bric Della Croce, Italia (16061): direzione del vento: 15.08.2019 14:00:00 - 21.08.2019 14:00:00 (CEST)Torino/Bric Della Croce, Italia (16061): visibility: 15.08.2019 14:00:00 - 21.08.2019 14:00:00 (CEST)Torino/Bric Della Croce, Italia (16061): ore di luce: 15.08.2019 14:00:00 - 21.08.2019 14:00:00 (CEST)
Data & Tempo tt [°C] td [°C] ff [km/h] ff [kn] dd vv [km] sd [min]
21.08.2019 14:00:00 22,2 18,0 0 0 N 30 48
21.08.2019 13:00:00 22,2 18,0 8 4 S 30 60
21.08.2019 12:00:00 21,4 17,8 5 3 O 30 60
21.08.2019 11:00:00 21,0 18,9 8 4 S 30 60
21.08.2019 10:00:00 20,2 19,9 0 0 N 30 6
21.08.2019 09:00:00 19,8 18,3 0 0 N 30 0
21.08.2019 08:00:00 19,2 18,7 8 4 SSE 20 0
21.08.2019 07:00:00 19,2 19,2 11 6 SE 20 -
21.08.2019 06:00:00 19,4 18,7 0 0 N 20 -
21.08.2019 05:00:00 19,4 18,7 4 2 N 20 -
21.08.2019 04:00:00 19,4 18,4 5 3 NE 20 -
21.08.2019 03:00:00 19,8 18,8 9 5 ENE 20 -
21.08.2019 02:00:00 19,8 19,8 8 4 N 20 -
21.08.2019 01:00:00 19,4 19,4 11 6 N 15 -
21.08.2019 00:00:00 19,4 19,4 11 6 N 20 -
20.08.2019 23:00:00 19,8 17,0 4 2 NNO 30 -
20.08.2019 22:00:00 19,2 19,2 15 8 N 15 -
20.08.2019 21:00:00 19,2 19,2 18 10 N 15 0
20.08.2019 20:00:00 20,0 20,0 11 6 E 15 0
20.08.2019 19:00:00 20,2 19,5 11 6 N 10 0
20.08.2019 18:00:00 21,6 20,1 4 2 NNO 10 0
20.08.2019 17:00:00 21,8 19,5 0 0 N 20 0
20.08.2019 16:00:00 22,0 19,9 4 2 NNE 20 12
20.08.2019 15:00:00 21,6 19,9 5 3 NE 20 0
20.08.2019 14:00:00 21,0 21,0 5 3 N 20 6
20.08.2019 13:00:00 20,6 20,6 5 3 NO 20 12
20.08.2019 12:00:00 20,4 20,4 4 2 NNE 20 18
20.08.2019 11:00:00 20,0 20,0 4 2 ENE 20 0
20.08.2019 10:00:00 19,6 19,6 5 3 ENE 20 0
20.08.2019 09:00:00 19,2 19,2 9 5 ENE 20 0
20.08.2019 08:00:00 19,2 18,4 9 5 NE 20 0
20.08.2019 07:00:00 19,2 19,2 9 5 ENE 18 -
20.08.2019 06:00:00 19,4 19,4 9 5 ENE 18 -
20.08.2019 05:00:00 19,8 19,8 9 5 E 18 -
20.08.2019 04:00:00 19,8 19,8 9 5 E 18 -
20.08.2019 03:00:00 20,0 20,0 11 6 E 18 -
20.08.2019 02:00:00 20,2 20,2 5 3 ENE 18 -
20.08.2019 01:00:00 20,8 20,8 5 3 ENE 18 -
20.08.2019 00:00:00 21,0 21,0 5 3 ENE 18 -
19.08.2019 23:00:00 21,0 21,0 9 5 E 13 -
19.08.2019 22:00:00 21,0 21,0 9 5 ENE 13 -
19.08.2019 21:00:00 20,2 20,2 5 3 N 13 0
19.08.2019 20:00:00 21,4 21,4 8 4 N 13 0
19.08.2019 19:00:00 22,2 21,7 8 4 ESE 18 0
19.08.2019 18:00:00 23,0 21,3 9 5 SSE 18 0
19.08.2019 17:00:00 24,2 19,5 8 4 ESE 18 30
19.08.2019 16:00:00 24,0 19,7 5 3 SE 15 42
19.08.2019 15:00:00 23,2 20,7 5 3 SE 15 18
19.08.2019 14:00:00 22,2 20,3 4 2 O 12 12
19.08.2019 13:00:00 22,2 19,7 4 2 SSE 12 60
19.08.2019 12:00:00 21,4 21,4 0 0 N 12 24
19.08.2019 11:00:00 20,2 20,2 5 3 NO 13 30
19.08.2019 10:00:00 21,0 21,0 5 3 E 15 36
19.08.2019 09:00:00 20,0 20,0 4 2 NNO 15 12
19.08.2019 08:00:00 20,6 19,8 0 0 N 20 6
19.08.2019 07:00:00 20,2 19,4 4 2 NNE 30 -
19.08.2019 06:00:00 20,4 20,4 0 0 N 30 -
19.08.2019 05:00:00 20,4 20,4 5 3 NNO 20 -
19.08.2019 04:00:00 20,8 20,8 8 4 NO 30 -
19.08.2019 03:00:00 20,8 20,8 4 2 NNE 30 -
19.08.2019 02:00:00 20,8 20,8 0 0 N 30 -
19.08.2019 01:00:00 21,2 21,2 0 0 N 30 -
19.08.2019 00:00:00 21,0 21,0 0 0 N 30 -
18.08.2019 23:00:00 21,0 21,0 0 0 N 30 -
18.08.2019 22:00:00 21,0 21,0 5 3 SSO 20 -
18.08.2019 21:00:00 22,0 22,0 9 5 S 20 0
18.08.2019 20:00:00 22,4 20,0 9 5 SE 40 0
18.08.2019 19:00:00 23,0 19,8 8 4 ESE 30 0
18.08.2019 18:00:00 23,0 19,2 0 0 N 40 0
18.08.2019 17:00:00 23,4 19,1 5 3 E 30 0
18.08.2019 16:00:00 23,0 19,6 0 0 N 30 0
18.08.2019 15:00:00 22,4 19,6 4 2 NE 30 0
18.08.2019 14:00:00 21,8 20,8 4 2 NNO 30 0
18.08.2019 13:00:00 21,0 21,0 5 3 NO 30 0
18.08.2019 12:00:00 21,0 21,0 0 0 N 20 24
18.08.2019 11:00:00 21,0 20,8 0 0 N 30 24
18.08.2019 10:00:00 20,2 19,7 0 0 N 30 12
18.08.2019 09:00:00 20,0 19,0 4 2 NE 40 0
18.08.2019 08:00:00 19,8 17,8 5 3 E 40 0
18.08.2019 07:00:00 20,0 17,8 0 0 N 40 -
18.08.2019 06:00:00 20,0 18,0 5 3 NNE 40 -
18.08.2019 05:00:00 20,0 19,4 0 0 N 40 -
18.08.2019 04:00:00 20,0 18,7 5 3 N 40 -
18.08.2019 03:00:00 20,2 18,2 0 0 N 40 -
18.08.2019 02:00:00 20,8 17,4 0 0 N 40 -
18.08.2019 01:00:00 20,6 17,6 9 5 E 40 -
18.08.2019 00:00:00 21,0 18,4 11 6 ESE 40 -
17.08.2019 23:00:00 21,0 18,2 11 6 ESE 40 -
17.08.2019 22:00:00 21,8 18,2 8 4 E 40 -
17.08.2019 21:00:00 22,0 17,2 8 4 S 40 0
17.08.2019 20:00:00 22,6 16,6 8 4 S 40 0
17.08.2019 19:00:00 23,4 16,5 5 3 SSE 30 18
17.08.2019 18:00:00 23,4 16,2 5 3 S 40 60
17.08.2019 17:00:00 23,8 16,8 5 3 ONO 40 60
17.08.2019 16:00:00 23,0 17,0 0 0 N 30 60
17.08.2019 15:00:00 22,4 17,5 0 0 N 30 12
17.08.2019 14:00:00 21,2 17,8 0 0 N 30 48
17.08.2019 13:00:00 21,2 18,6 0 0 N 30 42
17.08.2019 12:00:00 20,0 18,1 0 0 N 30 0
17.08.2019 11:00:00 20,0 18,3 0 0 N 30 30
17.08.2019 10:00:00 19,0 17,3 0 0 N 40 36
17.08.2019 09:00:00 19,0 16,2 0 0 N 40 0
17.08.2019 08:00:00 19,0 15,1 0 0 N 30 0
17.08.2019 07:00:00 19,2 15,1 4 2 SE 30 -
17.08.2019 06:00:00 19,4 14,2 0 0 N 40 -
17.08.2019 05:00:00 19,6 14,6 0 0 N 40 -
17.08.2019 04:00:00 19,2 14,7 4 2 ENE 40 -
17.08.2019 03:00:00 20,0 10,4 9 5 ESE 40 -
17.08.2019 02:00:00 20,2 12,4 0 0 N 40 -
17.08.2019 01:00:00 20,2 13,7 4 2 NE 40 -
17.08.2019 00:00:00 20,2 14,1 0 0 N 40 -
16.08.2019 23:00:00 20,4 14,7 4 2 ESE 40 -
16.08.2019 22:00:00 20,6 14,7 4 2 ENE 40 -
16.08.2019 21:00:00 20,8 14,7 4 2 ENE 40 0
16.08.2019 20:00:00 22,0 15,6 0 0 N 30 6
16.08.2019 19:00:00 22,0 15,8 0 0 N 40 42
16.08.2019 18:00:00 21,8 16,1 0 0 N 40 60
16.08.2019 17:00:00 21,8 15,4 5 3 E 40 48
16.08.2019 16:00:00 21,4 14,8 4 2 ESE 30 36
16.08.2019 15:00:00 20,8 15,6 0 0 N 30 36
16.08.2019 14:00:00 20,4 16,8 0 0 N 30 42
16.08.2019 13:00:00 19,6 18,1 8 4 N 20 36
16.08.2019 12:00:00 19,0 19,0 5 3 NNO 20 60
16.08.2019 11:00:00 18,0 18,0 9 5 NNO 20 60
16.08.2019 10:00:00 17,2 17,2 15 8 N 25 48
16.08.2019 09:00:00 17,6 17,3 13 7 NNE 30 36
16.08.2019 08:00:00 18,0 15,2 13 7 NNE 30 42
16.08.2019 07:00:00 18,0 16,0 5 3 NNE 30 -
16.08.2019 06:00:00 18,8 16,4 5 3 ENE 30 -
16.08.2019 05:00:00 18,8 16,2 5 3 ENE 30 -
16.08.2019 04:00:00 19,0 16,4 9 5 ENE 30 -
16.08.2019 03:00:00 19,2 16,2 0 0 N 30 -
16.08.2019 02:00:00 19,4 15,7 0 0 N 30 -
16.08.2019 01:00:00 19,6 15,7 9 5 S 30 -
16.08.2019 00:00:00 19,8 15,5 9 5 SO 30 -
15.08.2019 23:00:00 20,0 14,8 9 5 OSO 30 -
15.08.2019 22:00:00 20,0 14,8 9 5 O 30 -
15.08.2019 21:00:00 20,4 16,2 11 6 SSO 30 0
15.08.2019 20:00:00 21,0 16,0 5 3 S 30 6
15.08.2019 19:00:00 21,6 16,8 5 3 SSE 30 6
15.08.2019 18:00:00 21,8 16,5 5 3 SSE 30 12
15.08.2019 17:00:00 22,0 16,9 9 5 SE 30 18
15.08.2019 16:00:00 21,8 16,1 5 3 E 30 30
15.08.2019 15:00:00 20,0 17,8 5 3 NNE 30 30
15.08.2019 14:00:00 20,0 18,1 0 0 N 30 30

tt = Temperatura
td = dewpoint
ff = velocità del vento
dd = direzione del vento
vv = visibility
sd = ore di luce

Stazioni seguenti

WeatherPro
AMSI
MeteoEarth